sat.trackr.live / text

‹ back to catalog

STARLINK-5994

NORAD 56457 · 2023-064K

PAYLOAD ACTIVE UNKNOWN

§ Identity

Operator
Country
US
Launch date
2023-05-10
Launch site
AFWTR
Launch vehicle
Mass (kg)
RCS (m²)

Purposes: comms

External: N2YO · Heavens-Above · Gunter

§ Orbital elements

Epoch: 2026-05-25T04:24:30.808224Z

Period
96.11 min
Inclination
69.9989°
Eccentricity
0.0002448
Mean motion
14.98322442 rev/d
Perigee alt
570.4 km
Apogee alt
573.8 km
Semi-major
6,950.2 km
B*
-8.2497e-5
RAAN
311.6038°
Arg perigee
270.7464°
Mean anomaly
89.3414°
Rev number
16,670

§ Raw data

STARLINK-59941 56457U 23064K   26145.18368991 -.00001077  00000+0 -82497-4 0  99952 56457  69.9989 311.6038 0002448 270.7464  89.3414 14.98322442166707

JSON: /api/v1/satellites/56457 · /tle

For live sub-satellite position, see the globe view (requires WebGL).

§ Visibility from observer

Set your observer location to see the next 7 days of passes ≥ 10°. The values pass through the URL so the page stays shareable.

No JS? Fill the form by hand. The geolocation button needs JavaScript.